Weather History for Algiers Airport, Algeria

Change the Weather History Date:

Monday, February 18, 2013

  Actual Average Record
Temperature  
Mean Temperature 56 °F -  
Max Temperature 63 °F - - ()
Min Temperature 48 °F - - ()
Degree Days  
Heating Degree Days 8    
Growing Degree Days 6 (Base 50)    
Moisture  
Dew Point 52 °F    
Average Humidity 89    
Maximum Humidity 100    
Minimum Humidity 77    
Precipitation  
Precipitation 0.08 in - - ()
Sea Level Pressure  
Sea Level Pressure 29.94 in    
Wind  
Wind Speed 4 mph ()    
Max Wind Speed 12 mph    
Max Gust Speed -    
Visibility 4.3 miles    
Events Rain    
T = Trace of Precipitation, MM = Missing Value Source: Averaged Metar Reports

Daily Weather History Graph

Daily Weather History Graph

Search for Another Location

Airport:

Trip Planner

Search our weather history database for the weather conditions in past years. The results will help you decide how hot, cold, wet, or windy it might be!

Date:

Astronomy

Feb. 18, 2013 Rise Set
Actual Time 7:31 AM CET 6:30 PM CET
Civil Twilight 7:05 AM CET 6:57 PM CET
Nautical Twilight 6:35 AM CET 7:27 PM CET
Astronomical Twilight 6:05 AM CET 7:57 PM CET
Moon 12:09 PM CET (2/18) 1:53 AM CET (2/18)
Length of Visible Light 11h 51m
Length of Day
10h 58m
First Quarter, 56% of the Moon is Illuminated
Feb 18
First Quarter
Feb 25
Full
Mar 4
Last Quarter
Mar 11
New
Mar 19
First Quarter

Hourly Weather History & Observations

Time (CET) Temp. Dew Point Humidity Pressure Visibility Wind Dir Wind Speed Gust Speed Precip Events Conditions
12:00 AM 53.6 °F 51.8 °F 94% 29.98 in 2.8 mi South 3.5 mph - N/A   Scattered Clouds
12:30 AM 53.6 °F 51.8 °F 94% 29.98 in 2.8 mi Calm Calm - N/A   Scattered Clouds
1:00 AM 53 °F 51 °F 92% 29.98 in 3 mi SSE 2.3 mph - -   Mist
2:00 AM 51.8 °F 50.0 °F 94% 29.95 in 2.8 mi SSE 3.5 mph - N/A   Scattered Clouds
2:30 AM 53.6 °F 50.0 °F 88% 29.95 in 2.8 mi SE 3.5 mph - N/A   Mostly Cloudy
3:00 AM 51.8 °F 50.0 °F 94% 29.95 in 2.8 mi Variable 2.3 mph - N/A   Scattered Clouds
3:30 AM 51.8 °F 50.0 °F 94% 29.92 in 2.8 mi SE 1.2 mph - N/A   Scattered Clouds
4:00 AM 51 °F 51 °F 98% 29.93 in 3 mi Calm Calm - -   Mist
4:00 AM 51.8 °F 50.0 °F 94% 29.92 in 2.8 mi Calm Calm - N/A   Scattered Clouds
4:30 AM 51.8 °F 50.0 °F 94% 29.92 in 3.1 mi Variable 2.3 mph - N/A   Scattered Clouds
5:00 AM 51.8 °F 50.0 °F 94% 29.92 in 3.1 mi SW 1.2 mph - N/A   Mostly Cloudy
5:30 AM 51.8 °F 50.0 °F 94% 29.92 in 1.9 mi South 2.3 mph - N/A   Scattered Clouds
6:00 AM 51.8 °F 50.0 °F 94% 29.92 in 2.8 mi Calm Calm - N/A   Mostly Cloudy
6:30 AM 51.8 °F 50.0 °F 94% 29.92 in 6.2 mi SSW 2.3 mph - N/A   Mostly Cloudy
7:00 AM 53 °F 50 °F 87% 29.94 in 3 mi SSW 3.5 mph - -   Mist
7:00 AM 53.6 °F 50.0 °F 88% 29.92 in 6.2 mi SSW 3.5 mph - N/A   Mostly Cloudy
7:30 AM 53.6 °F 50.0 °F 88% 29.92 in 5.0 mi WSW 4.6 mph - N/A   Mostly Cloudy
8:00 AM 53.6 °F 50.0 °F 88% 29.92 in 3.1 mi WSW 4.6 mph - N/A   Light Drizzle
8:30 AM 53.6 °F 50.0 °F 88% 29.95 in 3.1 mi WSW 5.8 mph - N/A   Light Drizzle
9:00 AM 53.6 °F 50.0 °F 88% 29.95 in 3.1 mi SW 4.6 mph - N/A   Mostly Cloudy
9:30 AM 55.4 °F 50.0 °F 82% 29.95 in 3.1 mi SW 4.6 mph - N/A   Mostly Cloudy
10:00 AM 54 °F 51 °F 86% 29.97 in 1 mi SW 4.6 mph - - Rain Light Rain
10:00 AM 55.4 °F 51.8 °F 88% 29.95 in 1.2 mi SW 4.6 mph - N/A Rain Light Rain
10:30 AM 55.4 °F 51.8 °F 88% 29.95 in 3.7 mi SW 5.8 mph - N/A   Mostly Cloudy
11:00 AM 57.2 °F 51.8 °F 82% 29.95 in 3.7 mi SSW 4.6 mph - N/A   Mostly Cloudy
11:30 AM 55.4 °F 53.6 °F 94% 29.98 in 1.2 mi West 5.8 mph - N/A Rain Light Rain
12:00 PM 55.4 °F 53.6 °F 94% 29.98 in 3.1 mi West 10.4 mph - N/A Rain Rain
12:30 PM 57.2 °F 55.4 °F 94% 29.98 in 3.1 mi West 9.2 mph - N/A Rain Light Rain
1:00 PM 58 °F 56 °F 90% 29.97 in 6 mi WNW 9.2 mph - - Rain Light Rain
1:00 PM 59.0 °F 55.4 °F 88% 29.95 in 6.2 mi WNW 9.2 mph - N/A   Mostly Cloudy
1:30 PM 60.8 °F 55.4 °F 82% 29.95 in 6.2 mi WNW 11.5 mph - N/A   Mostly Cloudy
2:00 PM 60.8 °F 55.4 °F 82% 29.95 in 6.2 mi NW 6.9 mph - N/A   Scattered Clouds
2:30 PM 62.6 °F 55.4 °F 77% 29.92 in 6.2 mi North 5.8 mph - N/A   Scattered Clouds
3:00 PM 62.6 °F 55.4 °F 77% 29.92 in 6.2 mi WNW 8.1 mph - N/A   Scattered Clouds
3:30 PM 60.8 °F 55.4 °F 82% 29.92 in 6.2 mi North 10.4 mph - N/A   Partly Cloudy
4:00 PM 59 °F 54 °F 77% 29.94 in 6 mi NNW 11.5 mph - -   Partly Cloudy
4:00 PM 60.8 °F 53.6 °F 77% 29.92 in 6.2 mi NNW 11.5 mph - N/A   Scattered Clouds
4:30 PM 60.8 °F 53.6 °F 77% 29.92 in 6.2 mi North 10.4 mph - N/A   Partly Cloudy
5:00 PM 59.0 °F 53.6 °F 82% 29.92 in 6.2 mi North 9.2 mph - N/A   Partly Cloudy
5:30 PM 59.0 °F 53.6 °F 82% 29.95 in 6.2 mi North 4.6 mph - N/A   Scattered Clouds
6:00 PM 57.2 °F 53.6 °F 88% 29.95 in 6.2 mi NNE 3.5 mph - N/A   Scattered Clouds
6:30 PM 57.2 °F 51.8 °F 82% 29.95 in 6.2 mi Variable 2.3 mph - N/A   Mostly Cloudy
7:00 PM 56 °F 52 °F 83% 29.96 in 6 mi Calm Calm - -   Partly Cloudy
7:00 PM 55.4 °F 51.8 °F 88% 29.95 in 6.2 mi Calm Calm - N/A   Mostly Cloudy
7:30 PM 55.4 °F 51.8 °F 88% 29.95 in 6.2 mi East 4.6 mph - N/A   Scattered Clouds
8:00 PM 53.6 °F 51.8 °F 94% 29.95 in 5.0 mi ESE 3.5 mph - N/A   Partly Cloudy
8:30 PM 53.6 °F 51.8 °F 94% 29.95 in 5.0 mi ENE 3.5 mph - N/A   Partly Cloudy
9:00 PM 51.8 °F 50.0 °F 94% 29.95 in 5.0 mi East 2.3 mph - N/A   Partly Cloudy
9:30 PM 51.8 °F 50.0 °F 94% 29.95 in 5.0 mi ENE 3.5 mph - N/A   Partly Cloudy
10:00 PM 50 °F 50 °F 98% 29.96 in 4 mi East 4.6 mph - -   Scattered Clouds
10:00 PM 50.0 °F 50.0 °F 100% 29.95 in 3.7 mi East 4.6 mph - N/A   Partly Cloudy
10:30 PM 50.0 °F 48.2 °F 94% 29.95 in 3.7 mi ESE 2.3 mph - N/A   Partly Cloudy
11:00 PM 50.0 °F 48.2 °F 94% 29.95 in 3.7 mi NE 3.5 mph - N/A   Partly Cloudy
11:30 PM 48.2 °F 46.4 °F 93% 29.95 in 3.7 mi East 3.5 mph - N/A   Partly Cloudy